Location: Tamazert
(32.6352°N, 5.2072°W)
Time: 04:14:40
(UTC+00:00)

Vanguard 1 Rocket - Pass Details

Date: 05 October 2022
Orbit: 650 x 4225 km, 34.3° (Epoch: 05 December)

Event Time Altitude Azimuth Distance (km) Brightness Sun altitude
Rises 21:00:40 0° 263° (W) 8,149 13.0 -38.1°
Reaches altitude 10° 21:06:52 10° 265° (W) 6,772 12.4 -39.4°
Maximum altitude 21:27:04 84° 355° (N) 2,305 9.1 -43.2°
Enters shadow 21:27:08 84° 1° (N) 2,299 9.1 -43.2°
Drops below altitude 10° 21:36:58 10° 84° (E) 3,616 - -45.0°
Sets 21:39:15 0° 85° (E) 4,297 - -45.5°
